Simultaneous Nadir Overpasses (SNOs) Predictions

Prediction of SNOs between AQUA and GOES-15 Satellite Orbit:

Table of predicted SNOs for the next 14.0 days since TLE Epoch: 2/26/2021
Index Date Time (AQUA) AQUA Lat,Lon GOES-15 Lat,Lon Distance(km) Time Diff (sec)
1 02/27/2021 21:58:06 0.71,-125.74 0.16,-128.23 283.79 80
2 02/28/2021 10:19:21 0.44,-130.88 -0.15,-128.21 304.68 80
3 03/02/2021 10:07:10 -0.22,-127.93 -0.16,-128.24 35.84 80
4 03/04/2021 09:54:59 -0.88,-124.98 -0.16,-128.28 375.80 80
5 03/04/2021 22:16:22 -0.27,-130.16 0.15,-128.31 210.32 80
6 03/06/2021 22:04:11 0.40,-127.20 0.15,-128.34 129.03 80
7 03/07/2021 10:25:27 0.70,-132.36 -0.13,-128.32 458.70 80
8 03/08/2021 21:51:59 1.01,-124.24 0.14,-128.36 467.96 80
9 03/09/2021 10:13:15 0.09,-129.40 -0.13,-128.34 119.98 80
10 03/11/2021 10:01:03 -0.52,-126.43 -0.13,-128.36 218.60 80
11 03/11/2021 22:22:27 -0.56,-131.63 0.12,-128.38 368.97 80
